Terminal Aerodrome Forecast
Issued by NWS Oklahoma City, OK

Home | Current Version | Previous Version | Text Only | Print | Product List | Glossary On
Versions: 1 2 3 4 5 6 7 8 9 10 11 12 13
000
FTUS44 KOUN 261120
TAFOUN
TAF
KOUN 261120Z 2612/2712 18012KT P6SM SCT250
     FM261800 20014G24KT P6SM SCT050
     FM270300 17012KT P6SM FEW120=

USA.gov is the U.S. government's official web portal to all federal, state and local government web resources and services.